| time (UTC) | temp F | wind direction | speed MPH | gust MPH | rain 1hr in | rain 24hr in | rain mn in | humidity % | barometer mb |
| 20260506082028 | 63 | 252 | 3.0 | 7.0 | 0.00 | 0.00 | 0.00 | 78 | 1014.4 |
| 20260506081738 | 63 | 236 | 3.0 | 10.0 | 0.00 | 0.00 | 0.00 | 78 | 1014.5 |
| 20260506081016 | 63 | 219 | 3.0 | 10.0 | 0.00 | 0.00 | 0.00 | 78 | 1014.4 |
| 20260506080509 | 63 | 174 | 3.0 | 6.0 | 0.00 | 0.00 | 0.00 | 78 | 1014.4 |
| 20260506073451 | 64 | 244 | 3.0 | 12.0 | 0.00 | 0.00 | 0.00 | 77 | 1014.4 |
| 20260506072951 | 64 | 355 | 3.0 | 10.0 | 0.00 | 0.00 | 0.00 | 77 | 1014.4 |
| 20260506072453 | 64 | 159 | 3.0 | 11.0 | 0.00 | 0.00 | 0.00 | 77 | 1014.5 |
| 20260506071952 | 64 | 215 | 3.0 | 11.0 | 0.00 | 0.00 | 0.00 | 77 | 1014.5 |
| 20260506071936 | 64 | 305 | 3.0 | 12.0 | 0.00 | 0.00 | 0.00 | 77 | 1014.6 |
| 20260506070952 | 64 | 188 | 3.0 | 12.0 | 0.00 | 0.00 | 0.00 | 76 | 1014.6 |
| 20260506070708 | 64 | 151 | 3.0 | 9.0 | 0.00 | 0.00 | 0.00 | 76 | 1014.6 |
| 20260506062452 | 64 | 136 | 3.0 | 10.0 | 0.00 | 0.00 | 0.00 | 75 | 1014.6 |
| 20260506061953 | 64 | 95 | 4.0 | 15.0 | 0.00 | 0.00 | 0.00 | 75 | 1014.7 |
| 20260506061452 | 64 | 267 | 4.0 | 15.0 | 0.00 | 0.00 | 0.00 | 75 | 1014.6 |
| 20260506060952 | 64 | 188 | 4.0 | 10.0 | 0.00 | 0.00 | 0.00 | 75 | 1014.7 |
| 20260506060504 | 64 | 286 | 4.0 | 10.0 | 0.00 | 0.00 | 0.00 | 74 | 1014.8 |
| 20260506060213 | 64 | 165 | 4.0 | 10.0 | 0.00 | 0.00 | 0.00 | 75 | 1014.8 |
| 20260506051157 | 65 | 174 | 4.0 | 15.0 | 0.00 | 0.00 | 0.00 | 73 | 1015.4 |
| 20260506050428 | 65 | 180 | 3.0 | 14.0 | 0.00 | 0.00 | 0.00 | 73 | 1015.4 |
| 20260506044911 | 66 | 195 | 3.0 | 11.0 | 0.00 | 0.00 | 0.00 | 73 | 1015.4 |
| 20260506044404 | 66 | 249 | 3.0 | 11.0 | 0.00 | 0.00 | 0.00 | 73 | 1015.3 |
| 20260506043859 | 66 | 230 | 4.0 | 13.0 | 0.00 | 0.00 | 0.00 | 73 | 1015.4 |
| 20260506043352 | 66 | 328 | 4.0 | 13.0 | 0.00 | 0.00 | 0.00 | 73 | 1015.5 |
| 20260506042846 | 66 | 296 | 4.0 | 10.0 | 0.00 | 0.00 | 0.00 | 73 | 1015.4 |
| 20260506042340 | 66 | 222 | 3.0 | 10.0 | 0.00 | 0.00 | 0.00 | 73 | 1015.4 |
| 20260506042058 | 66 | 212 | 4.0 | 14.0 | 0.00 | 0.00 | 0.00 | 73 | 1015.4 |
| 20260506041329 | 66 | 174 | 5.0 | 14.0 | 0.00 | 0.00 | 0.00 | 74 | 1015.4 |
| 20260506040824 | 66 | 168 | 4.0 | 13.0 | 0.00 | 0.00 | 0.00 | 73 | 1015.4 |
| 20260506040317 | 67 | 228 | 4.0 | 10.0 | 0.00 | 0.00 | 0.00 | 73 | 1015.5 |
| 20260506035812 | 67 | 92 | 4.0 | 14.0 | 0.00 | 0.00 | 0.00 | 73 | 1015.5 |
| 20260506035306 | 67 | 205 | 4.0 | 14.0 | 0.00 | 0.00 | 0.00 | 73 | 1015.6 |
| 20260506034806 | 67 | 259 | 4.0 | 13.0 | 0.00 | 0.00 | 0.00 | 73 | 1015.6 |
| 20260506034529 | 67 | 277 | 4.0 | 10.0 | 0.00 | 0.00 | 0.00 | 73 | 1015.5 |
| 20260506033806 | 67 | 211 | 4.0 | 10.0 | 0.00 | 0.00 | 0.00 | 72 | 1015.4 |
| 20260506033306 | 67 | 209 | 3.0 | 10.0 | 0.00 | 0.00 | 0.00 | 72 | 1015.4 |
| 20260506032806 | 67 | 207 | 5.0 | 15.0 | 0.00 | 0.00 | 0.00 | 72 | 1015.3 |
| 20260506032307 | 68 | 178 | 5.0 | 15.0 | 0.00 | 0.00 | 0.00 | 72 | 1015.4 |
| 20260506031806 | 68 | 199 | 4.0 | 15.0 | 0.00 | 0.00 | 0.00 | 71 | 1015.4 |
| 20260506031307 | 68 | 199 | 4.0 | 16.0 | 0.00 | 0.00 | 0.00 | 71 | 1015.3 |
| 20260506030818 | 68 | 253 | 5.0 | 16.0 | 0.00 | 0.00 | 0.00 | 71 | 1015.4 |
| 20260506030530 | 68 | 258 | 5.0 | 24.0 | 0.00 | 0.00 | 0.00 | 71 | 1015.5 |
| 20260506025806 | 68 | 107 | 5.0 | 24.0 | 0.00 | 0.00 | 0.00 | 71 | 1015.4 |
| 20260506025306 | 69 | 207 | 5.0 | 14.0 | 0.00 | 0.00 | 0.00 | 71 | 1015.3 |
| 20260506024805 | 69 | 174 | 5.0 | 14.0 | 0.00 | 0.00 | 0.00 | 71 | 1015.3 |
| 20260506024304 | 69 | 256 | 4.0 | 12.0 | 0.00 | 0.00 | 0.00 | 70 | 1015.2 |
| 20260506024029 | 69 | 182 | 4.0 | 12.0 | 0.00 | 0.00 | 0.00 | 70 | 1015.3 |
| 20260506023306 | 69 | 95 | 4.0 | 14.0 | 0.00 | 0.00 | 0.00 | 70 | 1015.2 |
| 20260506022806 | 69 | 178 | 4.0 | 14.0 | 0.00 | 0.00 | 0.00 | 70 | 1015.2 |
| 20260506022306 | 70 | 150 | 5.0 | 16.0 | 0.00 | 0.00 | 0.00 | 70 | 1015.3 |
| 20260506021804 | 70 | 179 | 5.0 | 16.0 | 0.00 | 0.00 | 0.00 | 69 | 1015.1 |
| 20260506021304 | 70 | 61 | 4.0 | 16.0 | 0.00 | 0.00 | 0.00 | 69 | 1015.1 |
| 20260506020804 | 70 | 156 | 4.0 | 16.0 | 0.00 | 0.00 | 0.00 | 69 | 1015.0 |
| 20260506020304 | 70 | 251 | 5.0 | 15.0 | 0.00 | 0.00 | 0.00 | 69 | 1014.9 |
| 20260506015803 | 71 | 164 | 4.0 | 15.0 | 0.00 | 0.00 | 0.00 | 69 | 1015.0 |
| 20260506015305 | 71 | 191 | 4.0 | 18.0 | 0.00 | 0.00 | 0.00 | 68 | 1014.9 |
| 20260506015028 | 71 | 8 | 4.0 | 18.0 | 0.00 | 0.00 | 0.00 | 68 | 1014.8 |
| 20260506014533 | 71 | 29 | 4.0 | 12.0 | 0.00 | 0.00 | 0.00 | 67 | 1014.8 |
| 20260506013804 | 71 | 151 | 4.0 | 11.0 | 0.00 | 0.00 | 0.00 | 67 | 1014.8 |
| 20260506013303 | 72 | 265 | 4.0 | 10.0 | 0.00 | 0.00 | 0.00 | 66 | 1014.8 |
| 20260506012804 | 72 | 257 | 3.0 | 18.0 | 0.00 | 0.00 | 0.00 | 66 | 1014.8 |
| 20260506012523 | 72 | 229 | 3.0 | 18.0 | 0.00 | 0.00 | 0.00 | 65 | 1014.7 |
| 20260506011801 | 72 | 230 | 4.0 | 16.0 | 0.00 | 0.00 | 0.00 | 65 | 1014.7 |
| 20260506011305 | 72 | 212 | 6.0 | 16.0 | 0.00 | 0.00 | 0.00 | 64 | 1014.7 |
| 20260506010803 | 73 | 151 | 5.0 | 11.0 | 0.00 | 0.00 | 0.00 | 64 | 1014.6 |
| 20260506010257 | 73 | 208 | 4.0 | 11.0 | 0.00 | 0.00 | 0.00 | 64 | 1014.5 |
| 20260506005750 | 73 | 252 | 3.0 | 11.0 | 0.00 | 0.00 | 0.00 | 63 | 1014.5 |
| 20260506005245 | 73 | 77 | 2.0 | 11.0 | 0.00 | 0.00 | 0.00 | 63 | 1014.4 |
| 20260506004739 | 73 | 85 | 2.0 | 9.0 | 0.00 | 0.00 | 0.00 | 62 | 1014.3 |
| 20260506004232 | 73 | 315 | 3.0 | 9.0 | 0.00 | 0.00 | 0.00 | 62 | 1014.2 |
| 20260506003726 | 74 | 234 | 3.0 | 10.0 | 0.00 | 0.00 | 0.00 | 61 | 1014.1 |
| 20260506003220 | 74 | 106 | 3.0 | 11.0 | 0.00 | 0.00 | 0.00 | 60 | 1014.0 |
| 20260506002714 | 74 | 249 | 2.0 | 11.0 | 0.00 | 0.00 | 0.00 | 60 | 1014.0 |
| 20260506002208 | 74 | 191 | 2.0 | 8.0 | 0.00 | 0.00 | 0.00 | 59 | 1014.0 |
| 20260506001703 | 74 | 242 | 2.0 | 9.0 | 0.00 | 0.00 | 0.00 | 58 | 1014.0 |
| 20260506001157 | 75 | 211 | 2.0 | 9.0 | 0.00 | 0.00 | 0.00 | 58 | 1013.8 |
| 20260506000650 | 75 | 207 | 2.0 | 9.0 | 0.00 | 0.00 | 0.00 | 57 | 1013.9 |
| 20260506000145 | 75 | 166 | 2.0 | 9.0 | 0.00 | 0.00 | 0.00 | 57 | 1013.7 |
| 20260505235639 | 76 | 198 | 2.0 | 8.0 | 0.00 | 0.00 | 0.00 | 56 | 1013.7 |
| 20260505235132 | 76 | 133 | 3.0 | 12.0 | 0.00 | 0.00 | 0.00 | 55 | 1013.6 |
| 20260505234626 | 76 | 178 | 3.0 | 12.0 | 0.00 | 0.00 | 0.00 | 55 | 1013.7 |
| 20260505234353 | 76 | 197 | 3.0 | 8.0 | 0.00 | 0.00 | 0.00 | 54 | 1013.6 |
| 20260505233614 | 77 | 325 | 3.0 | 9.0 | 0.00 | 0.00 | 0.00 | 53 | 1013.6 |
| 20260505233108 | 77 | 32 | 4.0 | 10.0 | 0.00 | 0.00 | 0.00 | 53 | 1013.6 |
| 20260505232602 | 78 | 196 | 3.0 | 9.0 | 0.00 | 0.00 | 0.00 | 53 | 1013.7 |
| 20260505232056 | 78 | 159 | 3.0 | 10.0 | 0.00 | 0.00 | 0.00 | 52 | 1013.5 |
| 20260505231551 | 78 | 333 | 4.0 | 18.0 | 0.00 | 0.00 | 0.00 | 51 | 1013.5 |
| 20260505231045 | 79 | 2 | 6.0 | 18.0 | 0.00 | 0.00 | 0.00 | 50 | 1013.4 |
| 20260505230551 | 79 | 174 | 5.0 | 16.0 | 0.00 | 0.00 | 0.00 | 50 | 1013.4 |
| 20260505230032 | 79 | 228 | 5.0 | 16.0 | 0.00 | 0.00 | 0.00 | 50 | 1013.5 |
| 20260505225527 | 79 | 208 | 4.0 | 11.0 | 0.00 | 0.00 | 0.00 | 50 | 1013.5 |
| 20260505225020 | 79 | 15 | 4.0 | 10.0 | 0.00 | 0.00 | 0.00 | 49 | 1013.4 |
| 20260505224514 | 79 | 165 | 4.0 | 11.0 | 0.00 | 0.00 | 0.00 | 50 | 1013.5 |
| 20260505224008 | 79 | 181 | 4.0 | 12.0 | 0.00 | 0.00 | 0.00 | 50 | 1013.5 |
| 20260505223725 | 79 | 210 | 4.0 | 14.0 | 0.00 | 0.00 | 0.00 | 49 | 1013.4 |
| 20260505222956 | 78 | 170 | 4.0 | 14.0 | 0.00 | 0.00 | 0.00 | 49 | 1013.5 |
| 20260505222707 | 79 | 188 | 5.0 | 13.0 | 0.00 | 0.00 | 0.00 | 50 | 1013.5 |
| 20260505221944 | 79 | 151 | 5.0 | 14.0 | 0.00 | 0.00 | 0.00 | 49 | 1013.5 |
| 20260505221657 | 79 | 159 | 4.0 | 18.0 | 0.00 | 0.00 | 0.00 | 49 | 1013.7 |
| 20260505220933 | 79 | 167 | 4.0 | 18.0 | 0.00 | 0.00 | 0.00 | 48 | 1013.7 |
| 20260505220427 | 79 | 163 | 6.0 | 16.0 | 0.00 | 0.00 | 0.00 | 48 | 1013.6 |
| 20260505215920 | 79 | 228 | 7.0 | 19.0 | 0.00 | 0.00 | 0.00 | 47 | 1013.7 |
| 20260505215427 | 80 | 230 | 5.0 | 19.0 | 0.00 | 0.00 | 0.00 | 47 | 1013.6 |
| 20260505214909 | 80 | 184 | 5.0 | 11.0 | 0.00 | 0.00 | 0.00 | 46 | 1013.7 |
| 20260505214402 | 81 | 206 | 5.0 | 13.0 | 0.00 | 0.00 | 0.00 | 46 | 1013.6 |
| 20260505214114 | 81 | 253 | 6.0 | 14.0 | 0.00 | 0.00 | 0.00 | 45 | 1013.5 |
| 20260505213351 | 81 | 187 | 5.0 | 14.0 | 0.00 | 0.00 | 0.00 | 46 | 1013.4 |
| 20260505212844 | 81 | 198 | 7.0 | 18.0 | 0.00 | 0.00 | 0.00 | 45 | 1013.5 |
| 20260505212822 | 81 | 176 | 7.0 | 19.0 | 0.00 | 0.00 | 0.00 | 43 | 1013.5 |
| 20260505211832 | 82 | 190 | 6.0 | 19.0 | 0.00 | 0.00 | 0.00 | 43 | 1013.5 |
| 20260505211545 | 82 | 170 | 7.0 | 16.0 | 0.00 | 0.00 | 0.00 | 43 | 1013.4 |
| 20260505210833 | 82 | 195 | 6.0 | 16.0 | 0.00 | 0.00 | 0.00 | 42 | 1013.4 |
| 20260505210314 | 82 | 185 | 5.0 | 16.0 | 0.00 | 0.00 | 0.00 | 43 | 1013.3 |
| 20260505205808 | 83 | 81 | 4.0 | 13.0 | 0.00 | 0.00 | 0.00 | 41 | 1013.4 |
| 20260505205531 | 83 | 228 | 5.0 | 19.0 | 0.00 | 0.00 | 0.00 | 40 | 1013.4 |
| 20260505204755 | 83 | 124 | 5.0 | 19.0 | 0.00 | 0.00 | 0.00 | 41 | 1013.4 |
| 20260505204251 | 83 | 217 | 7.0 | 22.0 | 0.00 | 0.00 | 0.00 | 43 | 1013.4 |
| 20260505203744 | 83 | 141 | 7.0 | 22.0 | 0.00 | 0.00 | 0.00 | 41 | 1013.3 |
| 20260505203238 | 83 | 202 | 6.0 | 23.0 | 0.00 | 0.00 | 0.00 | 42 | 1013.4 |
| 20260505202732 | 83 | 168 | 7.0 | 23.0 | 0.00 | 0.00 | 0.00 | 40 | 1013.3 |
| 20260505202225 | 83 | 183 | 6.0 | 18.0 | 0.00 | 0.00 | 0.00 | 41 | 1013.4 |
| 20260505201722 | 83 | 180 | 6.0 | 16.0 | 0.00 | 0.00 | 0.00 | 41 | 1013.3 |
| 20260505201215 | 83 | 124 | 6.0 | 16.0 | 0.00 | 0.00 | 0.00 | 40 | 1013.5 |
| 20260505200934 | 83 | 263 | 5.0 | 15.0 | 0.00 | 0.00 | 0.00 | 40 | 1013.5 |
| 20260505200202 | 83 | 207 | 7.0 | 18.0 | 0.00 | 0.00 | 0.00 | 41 | 1013.6 |
| 20260505195656 | 83 | 280 | 7.0 | 23.0 | 0.00 | 0.00 | 0.00 | 39 | 1013.6 |
| 20260505195150 | 83 | 166 | 6.0 | 19.0 | 0.00 | 0.00 | 0.00 | 40 | 1013.7 |
| 20260505194644 | 84 | 255 | 6.0 | 16.0 | 0.00 | 0.00 | 0.00 | 40 | 1013.8 |
| 20260505194137 | 83 | 228 | 5.0 | 17.0 | 0.00 | 0.00 | 0.00 | 42 | 1013.9 |
| 20260505193857 | 84 | 189 | 5.0 | 17.0 | 0.00 | 0.00 | 0.00 | 41 | 1014.0 |
| 20260505193357 | 83 | 211 | 6.0 | 17.0 | 0.00 | 0.00 | 0.00 | 39 | 1014.2 |
| 20260505192839 | 83 | 49 | 7.0 | 17.0 | 0.00 | 0.00 | 0.00 | 41 | 1014.3 |
| 20260505192114 | 83 | 184 | 6.0 | 16.0 | 0.00 | 0.00 | 0.00 | 41 | 1014.4 |
| 20260505191621 | 83 | 275 | 5.0 | 17.0 | 0.00 | 0.00 | 0.00 | 41 | 1014.5 |
| 20260505191102 | 83 | 255 | 6.0 | 17.0 | 0.00 | 0.00 | 0.00 | 41 | 1014.6 |
| 20260505190557 | 83 | 134 | 6.0 | 14.0 | 0.00 | 0.00 | 0.00 | 40 | 1014.6 |
| 20260505190323 | 83 | 171 | 7.0 | 14.0 | 0.00 | 0.00 | 0.00 | 40 | 1014.6 |
| 20260505185812 | 83 | 239 | 6.0 | 14.0 | 0.00 | 0.00 | 0.00 | 42 | 1014.8 |
| 20260505185300 | 83 | 253 | 5.0 | 11.0 | 0.00 | 0.00 | 0.00 | 42 | 1014.9 |
| 20260505184533 | 83 | 175 | 5.0 | 17.0 | 0.00 | 0.00 | 0.00 | 43 | 1014.9 |
| 20260505184252 | 83 | 261 | 5.0 | 17.0 | 0.00 | 0.00 | 0.00 | 41 | 1015.0 |
| 20260505183741 | 83 | 170 | 6.0 | 21.0 | 0.00 | 0.00 | 0.00 | 41 | 1014.9 |
| 20260505183014 | 83 | 309 | 7.0 | 21.0 | 0.00 | 0.00 | 0.00 | 41 | 1014.9 |
| 20260505182508 | 83 | 232 | 6.0 | 17.0 | 0.00 | 0.00 | 0.00 | 41 | 1014.9 |
| 20260505182003 | 83 | 206 | 6.0 | 17.0 | 0.00 | 0.00 | 0.00 | 41 | 1015.0 |
| 20260505181457 | 83 | 186 | 5.0 | 16.0 | 0.00 | 0.00 | 0.00 | 43 | 1015.1 |
| 20260505180955 | 82 | 155 | 4.0 | 12.0 | 0.00 | 0.00 | 0.00 | 43 | 1015.1 |
| 20260505180455 | 82 | 178 | 5.0 | 16.0 | 0.00 | 0.00 | 0.00 | 45 | 1015.1 |
| 20260505175954 | 82 | 182 | 7.0 | 18.0 | 0.00 | 0.00 | 0.00 | 40 | 1015.2 |
| 20260505175454 | 82 | 359 | 5.0 | 18.0 | 0.00 | 0.00 | 0.00 | 41 | 1015.2 |
| 20260505174955 | 83 | 184 | 5.0 | 14.0 | 0.00 | 0.00 | 0.00 | 41 | 1015.2 |
| 20260505174454 | 83 | 189 | 5.0 | 14.0 | 0.00 | 0.00 | 0.00 | 42 | 1015.3 |
| 20260505173955 | 83 | 205 | 6.0 | 17.0 | 0.00 | 0.00 | 0.00 | 42 | 1015.3 |
| 20260505173453 | 82 | 255 | 5.0 | 17.0 | 0.00 | 0.00 | 0.00 | 44 | 1015.4 |
| 20260505172953 | 82 | 298 | 5.0 | 15.0 | 0.00 | 0.00 | 0.00 | 42 | 1015.3 |
| 20260505172453 | 81 | 271 | 6.0 | 20.0 | 0.00 | 0.00 | 0.00 | 41 | 1015.3 |
| 20260505171953 | 81 | 135 | 7.0 | 20.0 | 0.00 | 0.00 | 0.00 | 42 | 1015.4 |
| 20260505171454 | 81 | 168 | 7.0 | 20.0 | 0.00 | 0.00 | 0.00 | 41 | 1015.3 |
| 20260505170953 | 82 | 257 | 5.0 | 19.0 | 0.00 | 0.00 | 0.00 | 41 | 1015.3 |
| 20260505170448 | 82 | 261 | 5.0 | 11.0 | 0.00 | 0.00 | 0.00 | 44 | 1015.3 |
| 20260505170001 | 82 | 282 | 3.0 | 10.0 | 0.00 | 0.00 | 0.00 | 44 | 1015.4 |
| 20260505165448 | 82 | 192 | 3.0 | 9.0 | 0.00 | 0.00 | 0.00 | 46 | 1015.6 |
| 20260505164949 | 81 | 227 | 5.0 | 11.0 | 0.00 | 0.00 | 0.00 | 45 | 1015.8 |
| 20260505164709 | 81 | 199 | 6.0 | 14.0 | 0.00 | 0.00 | 0.00 | 47 | 1015.9 |
| 20260505163948 | 80 | 197 | 6.0 | 14.0 | 0.00 | 0.00 | 0.00 | 45 | 1016.0 |
| 20260505163450 | 80 | 177 | 6.0 | 14.0 | 0.00 | 0.00 | 0.00 | 46 | 1015.9 |
| 20260505162949 | 80 | 292 | 6.0 | 14.0 | 0.00 | 0.00 | 0.00 | 45 | 1016.0 |
| 20260505162449 | 80 | 195 | 7.0 | 16.0 | 0.00 | 0.00 | 0.00 | 48 | 1016.0 |
| 20260505161950 | 80 | 178 | 6.0 | 16.0 | 0.00 | 0.00 | 0.00 | 47 | 1016.1 |
| 20260505161446 | 80 | 224 | 5.0 | 14.0 | 0.00 | 0.00 | 0.00 | 47 | 1016.1 |
| 20260505161216 | 79 | 237 | 5.0 | 14.0 | 0.00 | 0.00 | 0.00 | 48 | 1016.2 |
| 20260505160448 | 79 | 226 | 6.0 | 14.0 | 0.00 | 0.00 | 0.00 | 51 | 1016.3 |
| 20260505152935 | 78 | 244 | 5.0 | 14.0 | 0.00 | 0.00 | 0.00 | 50 | 1016.5 |
| 20260505152646 | 78 | 170 | 5.0 | 14.0 | 0.00 | 0.00 | 0.00 | 52 | 1016.5 |
| 20260505151924 | 77 | 228 | 6.0 | 14.0 | 0.00 | 0.00 | 0.00 | 51 | 1016.3 |
| 20260505151418 | 77 | 197 | 6.0 | 14.0 | 0.00 | 0.00 | 0.00 | 52 | 1016.4 |
| 20260505150912 | 77 | 203 | 5.0 | 15.0 | 0.00 | 0.00 | 0.00 | 52 | 1016.3 |
| 20260505150405 | 77 | 160 | 4.0 | 15.0 | 0.00 | 0.00 | 0.00 | 54 | 1016.2 |
| 20260505150127 | 76 | 217 | 5.0 | 13.0 | 0.00 | 0.00 | 0.00 | 53 | 1016.4 |
| 20260505140534 | 72 | 203 | 5.0 | 13.0 | 0.00 | 0.00 | 0.00 | 60 | 1016.5 |
| 20260505130253 | 68 | 203 | 4.0 | 12.0 | 0.00 | 0.00 | 0.00 | 66 | 1016.7 |
| 20260505124735 | 67 | 190 | 5.0 | 12.0 | 0.00 | 0.00 | 0.00 | 67 | 1016.4 |
| 20260505124452 | 66 | 259 | 4.0 | 12.0 | 0.00 | 0.00 | 0.00 | 68 | 1016.4 |
| 20260505123723 | 66 | 234 | 4.0 | 12.0 | 0.00 | 0.00 | 0.00 | 68 | 1016.2 |
| 20260505123449 | 65 | 211 | 4.0 | 12.0 | 0.00 | 0.00 | 0.00 | 69 | 1016.1 |
| 20260505122711 | 65 | 206 | 4.0 | 13.0 | 0.00 | 0.00 | 0.00 | 69 | 1016.2 |
| 20260505122205 | 65 | 222 | 4.0 | 13.0 | 0.00 | 0.00 | 0.00 | 69 | 1016.2 |
| 20260505121923 | 65 | 178 | 4.0 | 10.0 | 0.00 | 0.00 | 0.00 | 70 | 1016.2 |
| 20260505121416 | 64 | 244 | 4.0 | 11.0 | 0.00 | 0.00 | 0.00 | 70 | 1016.2 |
| 20260505120647 | 64 | 197 | 3.0 | 11.0 | 0.00 | 0.00 | 0.00 | 71 | 1016.3 |
| 20260505120141 | 64 | 209 | 3.0 | 9.0 | 0.00 | 0.00 | 0.00 | 71 | 1016.1 |
| 20260505115636 | 63 | 178 | 4.0 | 10.0 | 0.00 | 0.00 | 0.00 | 72 | 1016.1 |
| 20260505115612 | 63 | 163 | 4.0 | 10.0 | 0.00 | 0.00 | 0.00 | 72 | 1016.2 |
| 20260505114624 | 62 | 186 | 3.0 | 9.0 | 0.00 | 0.00 | 0.00 | 72 | 1016.1 |
| 20260505114117 | 62 | 199 | 4.0 | 11.0 | 0.00 | 0.00 | 0.00 | 73 | 1016.0 |
| 20260505113838 | 62 | 241 | 3.0 | 11.0 | 0.00 | 0.00 | 0.00 | 73 | 1015.9 |
| 20260505113105 | 61 | 191 | 3.0 | 9.0 | 0.00 | 0.00 | 0.00 | 74 | 1015.8 |
| 20260505112559 | 61 | 209 | 3.0 | 9.0 | 0.00 | 0.00 | 0.00 | 74 | 1015.8 |
| 20260505112053 | 60 | 205 | 3.0 | 7.0 | 0.00 | 0.00 | 0.00 | 75 | 1015.8 |
| 20260505111546 | 60 | 219 | 3.0 | 8.0 | 0.00 | 0.00 | 0.00 | 75 | 1015.8 |
| 20260505111041 | 60 | 328 | 4.0 | 9.0 | 0.00 | 0.00 | 0.00 | 75 | 1015.8 |
| 20260505110535 | 59 | 267 | 4.0 | 11.0 | 0.00 | 0.00 | 0.00 | 76 | 1015.7 |
| 20260505101941 | 58 | 222 | 2.0 | 5.0 | 0.00 | 0.00 | 0.00 | 77 | 1015.4 |
| 20260505101434 | 58 | 229 | 2.0 | 6.0 | 0.00 | 0.00 | 0.00 | 77 | 1015.5 |
| 20260505100929 | 58 | 239 | 2.0 | 6.0 | 0.00 | 0.00 | 0.00 | 77 | 1015.3 |
| 20260505100644 | 58 | 231 | 2.0 | 7.0 | 0.00 | 0.00 | 0.00 | 77 | 1015.3 |
| 20260505095917 | 58 | 224 | 3.0 | 7.0 | 0.00 | 0.00 | 0.00 | 77 | 1015.2 |
| 20260505095411 | 58 | 205 | 2.0 | 7.0 | 0.00 | 0.00 | 0.00 | 77 | 1015.2 |
| 20260505094906 | 58 | 231 | 2.0 | 10.0 | 0.00 | 0.00 | 0.00 | 77 | 1015.2 |
| 20260505094400 | 58 | 257 | 2.0 | 10.0 | 0.00 | 0.00 | 0.00 | 76 | 1015.1 |
| 20260505093853 | 58 | 197 | 2.0 | 7.0 | 0.00 | 0.00 | 0.00 | 77 | 1015.1 |
| 20260505093346 | 58 | 188 | 3.0 | 8.0 | 0.00 | 0.00 | 0.00 | 76 | 1015.0 |
| 20260505093327 | 58 | 202 | 2.0 | 8.0 | 0.00 | 0.00 | 0.00 | 76 | 1015.1 |
| 20260505092345 | 58 | 233 | 3.0 | 8.0 | 0.00 | 0.00 | 0.00 | 76 | 1014.9 |
| 20260505092102 | 58 | 238 | 2.0 | 11.0 | 0.00 | 0.00 | 0.00 | 76 | 1015.0 |
| 20260505091343 | 58 | 226 | 1.0 | 11.0 | 0.00 | 0.00 | 0.00 | 76 | 1015.0 |
| 20260505090841 | 59 | 203 | 2.0 | 8.0 | 0.00 | 0.00 | 0.00 | 76 | 1014.9 |
| 20260505090339 | 59 | 249 | 3.0 | 8.0 | 0.00 | 0.00 | 0.00 | 76 | 1014.9 |
| 20260505085838 | 59 | 197 | 2.0 | 8.0 | 0.00 | 0.00 | 0.00 | 75 | 1014.9 |
| 20260505085337 | 59 | 189 | 2.0 | 9.0 | 0.00 | 0.00 | 0.00 | 75 | 1015.0 |
| 20260505084837 | 59 | 227 | 3.0 | 9.0 | 0.00 | 0.00 | 0.00 | 75 | 1014.9 |
| 20260505084337 | 59 | 242 | 2.0 | 9.0 | 0.00 | 0.00 | 0.00 | 75 | 1015.0 |
| 20260505083833 | 59 | 230 | 3.0 | 9.0 | 0.00 | 0.00 | 0.00 | 75 | 1015.0 |
| 20260505083333 | 59 | 206 | 3.0 | 8.0 | 0.00 | 0.00 | 0.00 | 74 | 1014.9 |
| 20260505082834 | 60 | 302 | 3.0 | 8.0 | 0.00 | 0.00 | 0.00 | 74 | 1015.0 |